New Orleans Lakefront, LA

9:40 PM CDT on April 24, 2017 (GMT -0500)
Lakefront

Weather History for KNEW - November, 2012

Change the Weather History Date:

Sunday, November 4, 2012

  Actual Average Record
Temperature  
Mean Temperature 70 °F 66 °F  
Max Temperature 80 °F 75 °F 88 °F (2016)
Min Temperature 59 °F 57 °F 32 °F (1966)
Degree Days  
Heating Degree Days 0 3  
Month to date heating degree days 0 9  
Since 1 July heating degree days 27 34  
Cooling Degree Days 5 3  
Month to date cooling degree days 25 15  
Year to date cooling degree days 3363 2924  
Growing Degree Days 19 (Base 50)    
Moisture  
Dew Point 63 °F    
Average Humidity 78    
Maximum Humidity 97    
Minimum Humidity 58    
Precipitation  
Precipitation 0.48 in 0.14 in 3.44 in (1992)
Month to date precipitation 0.48 0.54  
Year to date precipitation 61.13 53.26  
Snow  
Snow 0.00 in - - ()
Month to date snowfall 0.0  
Since 1 July snowfall 0.0  
Since 1 September snowfall 0.0  
Snow Depth 0.00 in    
Sea Level Pressure  
Sea Level Pressure 30.07 in    
Wind  
Wind Speed 6 mph (SSW)    
Max Wind Speed 26 mph    
Max Gust Speed 84 mph    
Visibility 8 miles    
Events Rain    
T = Trace of Precipitation, MM = Missing Value Source: NWS Daily Summary

Daily Weather History Graph

Daily Weather History Graph

Search for Another Location

Airport or City:

Trip Planner

Search our weather history database for the weather conditions in past years. The results will help you decide how hot, cold, wet, or windy it might be!

Date:

Astronomy

Nov. 04, 2012 Rise Set
Actual Time 6:16 AM CST 5:10 PM CST
Civil Twilight 5:51 AM CST 5:35 PM CST
Nautical Twilight 5:23 AM CST 6:03 PM CST
Astronomical Twilight 4:55 AM CST 6:31 PM CST
Moon 9:51 PM CST (11/4) 10:55 AM CST (11/4)
Length of Visible Light 11h 43m
Length of Day
10h 53m
Waning Gibbous, 72% of the Moon is Illuminated
Nov 4
Waning Gibbous
Nov 6
Last Quarter
Nov 13
New
Nov 20
First Quarter
Nov 28
Full

Hourly Weather History & Observations

Time (CST) Temp. Dew Point Humidity Pressure Visibility Wind Dir Wind Speed Gust Speed Precip Events Conditions
12:53 AM 68.0 °F 66.0 °F 93% 30.08 in 9.0 mi SW 5.8 mph - N/A   Clear
1:53 AM 66.0 °F 64.9 °F 96% 30.07 in 7.0 mi SSW 4.6 mph - N/A   Clear
1:53 AM 66.0 °F 64.9 °F 96% 30.06 in 7.0 mi SW 4.6 mph - N/A   Clear
2:53 AM 66.0 °F 64.0 °F 93% 30.06 in 9.0 mi SW 8.1 mph - 0.01 in   Clear
3:53 AM 66.0 °F 64.0 °F 93% 30.06 in 9.0 mi SW 8.1 mph - N/A   Clear
4:53 AM 66.0 °F 64.0 °F 93% 30.06 in 8.0 mi SSW 6.9 mph - N/A   Clear
5:53 AM 66.2 °F 64.4 °F 94% 30.10 in 10.0 mi SSW 5.8 mph - N/A   Clear
6:53 AM 66.9 °F 64.0 °F 90% 30.09 in 10.0 mi SSW 5.8 mph - N/A   Clear
7:53 AM 70.0 °F 64.9 °F 84% 30.09 in 10.0 mi SSW 5.8 mph - N/A   Mostly Cloudy
8:53 AM 73.9 °F 64.0 °F 71% 30.08 in 10.0 mi SW 11.5 mph - N/A   Mostly Cloudy
9:53 AM 75.0 °F 63.0 °F 66% 30.09 in 10.0 mi SW 10.4 mph - N/A   Mostly Cloudy
10:53 AM 73.9 °F 64.0 °F 71% 30.07 in 10.0 mi WSW 8.1 mph - N/A   Overcast
11:09 AM 69.8 °F 62.6 °F 78% 30.10 in 9.0 mi North 28.8 mph 35.7 mph N/A   Overcast
11:22 AM 66.2 °F 60.8 °F 83% 30.10 in 10.0 mi North 28.8 mph 35.7 mph N/A   Overcast
11:40 AM 64.4 °F 60.8 °F 88% 30.11 in 1.8 mi NNE 28.8 mph 33.4 mph 0.06 in Rain Heavy Rain
11:53 AM 64.0 °F 62.1 °F 93% 30.08 in 1.2 mi NNE 25.3 mph - 0.16 in Rain Heavy Rain
12:00 PM 64.4 °F 62.6 °F 94% 30.10 in 2.0 mi NNE 23.0 mph 29.9 mph 0.01 in Rain Light Rain
12:07 PM 64.4 °F 62.6 °F 94% 30.10 in 8.0 mi NNE 19.6 mph 27.6 mph 0.01 in Rain Light Rain
12:53 PM 64.9 °F 61.0 °F 87% 30.07 in 10.0 mi ENE 15.0 mph - 0.01 in   Overcast
1:53 PM 64.0 °F 62.1 °F 93% 30.08 in 3.0 mi SSE 10.4 mph - 0.08 in Rain Light Rain
2:53 PM 64.0 °F 62.1 °F 93% 30.06 in 8.0 mi SE 3.5 mph - 0.13 in Rain Light Rain
3:53 PM 64.0 °F 63.0 °F 96% 30.04 in 6.0 mi South 8.1 mph - 0.06 in Rain Light Rain
4:53 PM 64.9 °F 63.0 °F 93% 30.02 in 10.0 mi South 9.2 mph - 0.00 in   Clear
5:53 PM 64.9 °F 63.0 °F 93% 30.02 in 9.0 mi Calm Calm - N/A   Mostly Cloudy
6:53 PM 64.0 °F 63.0 °F 96% 30.05 in 10.0 mi North 10.4 mph - N/A   Clear
7:41 PM 64.4 °F 62.6 °F 94% 30.08 in 10.0 mi NNE 11.5 mph - N/A   Partly Cloudy
7:53 PM 64.0 °F 62.1 °F 93% 30.06 in 10.0 mi NNE 11.5 mph - N/A   Partly Cloudy
8:53 PM 64.0 °F 62.1 °F 93% 30.08 in 10.0 mi NNE 5.8 mph - N/A   Clear
9:53 PM 63.0 °F 62.1 °F 97% 30.07 in 10.0 mi ENE 3.5 mph - N/A   Clear
10:53 PM 60.1 °F 59.0 °F 96% 30.08 in 8.0 mi South 3.5 mph - 0.01 in   Clear